カタログに戻る

GLOBALSTAR M042

運用中通信LEO
NORAD 25679·PAYLOAD·🇺🇸 United States

打ち上げ Apr 15, 1999 から Baikonur Cosmodrome

Loading…

次のパス (今後24時間)

TLE

最新Source: Space-Track

元期: Sep 14, 2026, 06:07 UTC

1 25679U 99019D   26257.25508977 -.00000083  00000-0  81861-4 0  9992
2 25679  51.9999 209.0809 0002772 154.8851 352.2712 12.22101841240775

AllMySatでGLOBALSTAR M042をリアルタイム追跡

Download on the App Store